Hourly Data Report for October 09, 2015

All times are specified in Local Standard Time (LST). Add 1 hour to adjust for Daylight Saving Time where and when it is observed.

CAPE DORSET A
NUNAVUT

64°13'49.000" N
76°31'30.000" W
48.20 m
2400637
71366
YTE

Download Data

Hourly Data (October 2015)
Hourly Data Report for October 9, 2015
Temp Definition
°C
Dew Point Temp Definition
°C
Rel Hum Definition
%
Wind Dir Definition
10's deg

Wind Spd Definition
km/h
Visibility Definition
km
Stn Press Definition
kPa
Hmdx Definition


Wind Chill Definition


Weather Definition


TIME
00:00 Legend Double Dagger -4.8 -7.6 81 2 15 16.1 99.96   -10 LegendNANA
01:00 Legend Double Dagger -4.6 -7.6 79 5 15 16.1 99.92   -10 LegendNANA
02:00 Legend Double Dagger -4.5 -7.2 82 5 18 16.1 99.88   -11 LegendNANA
03:00 Legend Double Dagger -4.5 -6.8 84 6 21 16.1 99.84   -11 LegendNANA
04:00 Legend Double Dagger -4.4 -6.3 87 7 24 16.1 99.79   -11 LegendNANA
05:00 Legend Double Dagger -4.3 -5.8 89 6 30 16.1 99.76   -12 LegendNANA
06:00 Legend Double Dagger -4.3 -5.9 89 6 26 16.1 99.75   -12 LegendNANA
07:00 Legend Double Dagger -4.5 -6.2 88 5 26 16.1 99.74   -12 LegendNANA
08:00 Legend Double Dagger -4.4 -6.9 83 6 24 16.1 99.71   -11 Snow
09:00 Legend Double Dagger -4.2 -7.3 79 7 22 16.1 99.65   -11 LegendNANA
10:00 Legend Double Dagger -4.5 -8.2 75 6 26 16.1 99.61   -12 LegendNANA
11:00 Legend Double Dagger -4.5 -7.7 78 6 28 16.1 99.56   -12 Snow
12:00 Legend Double Dagger -4.7 -8.1 78 5 30 16.1 99.54   -13 LegendNANA
13:00 Legend Double Dagger -4.8 -7.4 82 5 22 16.1 99.53   -12 LegendNANA
14:00 Legend Double Dagger -5.2 -7.3 85 6 26 16.1 99.49   -13 LegendNANA
15:00 Legend Double Dagger -5.1 -7.4 84 6 26 16.1 99.45   -13 LegendNANA
16:00 Legend Double Dagger -5.6 -8.4 81 5 26 16.1 99.47   -13 LegendNANA
17:00 Legend Double Dagger -5.7 -7.6 87 5 37 16.1 99.43   -15 LegendNANA
18:00 Legend Double Dagger -5.6 -8.1 83 5 30 16.1 99.41   -14 LegendNANA
19:00 Legend Double Dagger -5.5 -7.7 85 4 22 16.1 99.38   -13 LegendNANA
20:00 Legend Double Dagger -5.4 -7.5 85 5 22 16.1 99.35   -12 LegendNANA
21:00 Legend Double Dagger -5.4 -7.2 87 3 18 16.1 99.30   -12 LegendNANA
22:00 Legend Double Dagger -5.2 -6.7 89 5 18 16.1 99.27   -11 LegendNANA
23:00 Legend Double Dagger -5.1 -6.8 88 3 22 16.1 99.25   -12 LegendNANA

Notes on Data Quality.

Legend

  • E = Estimated
  • M = Missing
  • NA = Not Available
  • ‡ = Partner data that is not subject to review by the National Climate Archives
Date modified: